Location: Unspecified
(0.0000°N, 0.0000°E)
Time: 04:48:40
(UTC+02:00)

AO-40 - Visible Passes

Search period start: 26 May 2016 00:00
Search period end: 05 June 2016 00:00
Orbit: 976 x 58844 km, 8.4° (Epoch: 23 May)

Date Brightness Start Highest point End Pass type
(mag) Time Alt. Az. Time Alt. Az. Time Alt. Az.
27 May ? 15:01:23 10° W 16:32:31 44° W 20:44:35 10° W visible
28 May ? 09:39:29 10° W 15:45:19 85° N 22:15:19 10° W visible
29 May ? 04:39:08 24° E 04:39:08 24° E 04:41:56 10° E visible
29 May ? 10:44:07 10° E 17:14:59 89° N 23:21:11 68° SSE visible
31 May ? 14:31:47 10° W 16:04:44 47° WNW 20:37:02 10° W visible
01 Jun ? 09:11:49 10° W 15:37:10 86° N 22:06:49 10° W visible
02 Jun ? 04:12:45 14° E 04:12:45 14° E 04:13:44 10° E visible
02 Jun ? 10:35:36 10° E 17:06:54 90° N 22:55:19 60° SE visible
04 Jun ? 14:02:27 10° W 15:36:55 51° WNW 20:29:12 10° W visible
